Volver al catálogo

STARLINK-37924

ActivoComunicacionesSSO
NORAD 69569·PAYLOAD·🇺🇸 United States

Lanzado Jun 15, 2026 desde Vandenberg Space Force Base

Loading…

Próximos Pases (próximas 24 horas)

TLE

ActualizadoSource: CelesTrak SupGP

Época: Sep 14, 2026, 15:05 UTC

1 69569C 26135Z   26257.62895833 -.00023841  00000+0 -74005-3 0  2573
2 69569  97.2843 285.4773 0001202 105.5166 324.1144 15.33452545    12

Sigue STARLINK-37924 en tiempo real con AllMySat

Download on the App Store